Home > Weather > Nipigon > Past weeks

Flag for Canada Weather for the Past 2 Weeks in Nipigon, Ontario, Canada

Now
32 °F

Chilly.


Feels Like: 24 °F
Forecast: 32 / 51 °F
Wind: 9 mph from Northeast

Location: Katatota Island

Current Time: Apr 29, 2016 at 4:27:42 AM

Latest Report: Apr 29, 2016 at 3:00 AM


Visibility: N/A

Pressure: 30.22 "Hg

Humidity: 91%

Dew Point: 29 °F

Location of NipigonLocation

Historic Weather in Nipigon — Graph

°F

Nipigon Temperature Yesterday

Maximum temperature yesterday: 38 °F (at 8:00 PM)
Minimum temperature yesterday: 28 °F (at 7:00 AM)
Average temperature yesterday: 33 °F

High & Low Weather Summary for the Past Weeks

 TemperatureHumidityPressure
High53 °F (Apr 20, 5:00 PM)100% (Apr 17, 6:00 PM)30.54 "Hg (Apr 17, 6:00 PM)
Low22 °F (Apr 27, 6:00 AM)44% (Apr 22, 7:00 PM)29.81 "Hg (Apr 21, 5:00 AM)
Average35 °F78%30.21 "Hg
* Reported Apr 14 2:00 AM — Apr 29 2:00 AM, Nipigon, Weather by CustomWeather, © 2016

Note: Actual official high and low records may vary slightly from our data, if they occured in-between our weather recording intervals... More about our weather records

Advertising

Nipigon Weather History for the Previous 24 Hours

Scroll right to see more
 ConditionsComfort  
Time TempWeatherWind HumidityBarometerVisibility
2:00 AM
Fri, Apr 29
33 °FChilly.10 mph88%30.22 "HgN/A
1:00 AM33 °FChilly.10 mph87%30.22 "HgN/A
12:00 AM33 °FChilly.8 mph88%30.22 "HgN/A
11:00 PM
Thu, Apr 28
33 °FChilly.9 mph91%30.23 "HgN/A
10:00 PM34 °FChilly.12 mph88%30.22 "HgN/A
9:00 PM36 °FChilly.15 mph84%30.21 "HgN/A
8:00 PM38 °FChilly.17 mph75%30.20 "HgN/A
7:00 PM38 °FChilly.12 mph74%30.19 "HgN/A
6:00 PM37 °FChilly.12 mph79%30.19 "HgN/A
5:00 PM38 °FChilly.12 mph76%30.19 "HgN/A
4:00 PM37 °FChilly.12 mph76%30.21 "HgN/A
3:00 PM36 °FChilly.10 mph77%30.22 "HgN/A
2:00 PM35 °FChilly.10 mph80%30.24 "HgN/A
1:00 PM34 °FChilly.13 mph81%30.24 "HgN/A
12:00 PM34 °FChilly.13 mph81%30.24 "HgN/A
11:00 AM34 °FChilly.6 mph78%30.25 "HgN/A
10:00 AM33 °FChilly.7 mph78%30.24 "HgN/A
9:00 AM32 °FChilly.6 mph83%30.23 "HgN/A
8:00 AM29 °FChilly.7 mph87%30.22 "HgN/A
7:00 AM28 °FChilly.7 mph89%30.22 "HgN/A
6:00 AM29 °FChilly.10 mph85%30.20 "HgN/A
5:00 AM29 °FChilly.9 mph86%30.20 "HgN/A
4:00 AM29 °FChilly.7 mph86%30.20 "HgN/A
Weather by CustomWeather, © 2016

See weather overviewHow to use our weather pages